Hoquiam, WA

5:26 AM PDT on October 17, 2017 (GMT -0700)
Bowerman

Weather History for KHQM - January, 2014

Change the Weather History Date:

Friday, January 17, 2014

  Actual Average Record
Temperature  
Mean Temperature 42 °F 43 °F  
Max Temperature 47 °F 47 °F 56 °F (2015)
Min Temperature 37 °F 38 °F 26 °F (1954)
Degree Days  
Heating Degree Days 23 22  
Month to date heating degree days 360 385  
Cooling Degree Days 0 0  
Month to date cooling degree days 0 0  
Year to date cooling degree days 0 0  
Moisture  
Dew Point 39 °F    
Average Humidity 91    
Maximum Humidity 100    
Minimum Humidity 82    
Precipitation  
Precipitation 0.00 in 0.35 in 2.57 in (2005)
Month to date precipitation 5.08 5.98  
Year to date precipitation 5.08 5.98  
Sea Level Pressure  
Sea Level Pressure 30.20 in    
Wind  
Wind Speed 15 mph (ENE)    
Max Wind Speed 22 mph    
Max Gust Speed 26 mph    
Visibility 6 miles    
Events      
T = Trace of Precipitation, MM = Missing Value Source: NWS Daily Summary

Daily Weather History Graph

Daily Weather History Graph

Search for Another Location

Airport or City:

Trip Planner

Search our weather history database for the weather conditions in past years. The results will help you decide how hot, cold, wet, or windy it might be!

Date:

Astronomy

Jan. 17, 2014 Rise Set
Actual Time 7:55 AM PST 4:56 PM PST
Civil Twilight 7:21 AM PST 5:30 PM PST
Nautical Twilight 6:43 AM PST 6:08 PM PST
Astronomical Twilight 6:07 AM PST 6:44 PM PST
Moon 6:58 PM PST 8:17 AM PST
Length of Visible Light 10h 09m
Length of Day
9h 01m
Full, 98% of the Moon is Illuminated
Jan 17
Full
Jan 23
Last Quarter
Jan 30
New
Feb 6
First Quarter
Feb 14
Full

Hourly Weather History & Observations

Time (PST) Temp. Windchill Dew Point Humidity Pressure Visibility Wind Dir Wind Speed Gust Speed Precip Events Conditions
12:53 AM 41.0 °F 33.5 °F 39.0 °F 93% 30.29 in 7.0 mi NE 13.8 mph - N/A   Mostly Cloudy
1:04 AM 41.0 °F 33.5 °F 39.0 °F 93% 30.27 in 7.0 mi NE 13.8 mph - N/A   Scattered Clouds
1:36 AM 41.0 °F 34.3 °F 39.0 °F 93% 30.26 in 7.0 mi NE 11.5 mph - N/A   Mostly Cloudy
1:53 AM 41.0 °F 32.8 °F 39.0 °F 93% 30.27 in 7.0 mi NE 16.1 mph - N/A   Mostly Cloudy
2:02 AM 41.0 °F 33.1 °F 37.9 °F 89% 30.26 in 7.0 mi NE 15.0 mph - N/A   Scattered Clouds
2:53 AM 39.9 °F 32.5 °F 39.0 °F 97% 30.27 in 7.0 mi ENE 12.7 mph - N/A   Partly Cloudy
3:53 AM 41.0 °F 33.9 °F 37.9 °F 89% 30.25 in 7.0 mi NE 12.7 mph - N/A   Clear
4:00 AM 39.9 °F 32.9 °F 37.9 °F 93% 30.24 in 7.0 mi NE 11.5 mph - N/A   Partly Cloudy
4:53 AM 39.9 °F 32.9 °F 37.9 °F 93% 30.24 in 7.0 mi ENE 11.5 mph - N/A   Partly Cloudy
5:17 AM 39.9 °F 32.9 °F 37.9 °F 93% 30.22 in 7.0 mi ENE 11.5 mph - N/A   Mostly Cloudy
5:53 AM 39.9 °F 33.4 °F 37.9 °F 93% 30.22 in 7.0 mi ENE 10.4 mph - N/A   Scattered Clouds
6:53 AM 39.9 °F 32.9 °F 39.0 °F 97% 30.22 in 7.0 mi ENE 11.5 mph - N/A   Partly Cloudy
7:53 AM 41.0 °F 33.5 °F 39.0 °F 93% 30.22 in 7.0 mi NE 13.8 mph - N/A   Partly Cloudy
8:53 AM 41.0 °F 33.5 °F 39.0 °F 93% 30.22 in 6.0 mi ENE 13.8 mph - N/A   Clear
9:53 AM 43.0 °F 34.8 °F 39.9 °F 89% 30.21 in 7.0 mi ENE 18.4 mph 24.2 mph N/A   Clear
10:53 AM 44.1 °F 36.8 °F 41.0 °F 89% 30.21 in 7.0 mi ENE 16.1 mph - N/A   Clear
11:53 AM 46.0 °F 38.5 °F 41.0 °F 83% 30.19 in 7.0 mi ENE 19.6 mph - N/A   Clear
12:53 PM 46.0 °F 38.3 °F 41.0 °F 83% 30.17 in 6.0 mi East 20.7 mph - N/A   Haze
1:53 PM 46.0 °F 38.3 °F 42.1 °F 86% 30.15 in 6.0 mi ENE 20.7 mph - N/A   Clear
2:53 PM 46.9 °F - 41.0 °F 80% 30.14 in 6.0 mi East 18.4 mph - N/A   Haze
3:53 PM 46.0 °F 39.0 °F 41.0 °F 83% 30.16 in 6.0 mi East 17.3 mph - N/A   Haze
4:53 PM 44.1 °F 36.8 °F 39.9 °F 85% 30.17 in 6.0 mi East 16.1 mph - N/A   Clear
5:53 PM 42.1 °F 33.9 °F 39.0 °F 89% 30.17 in 6.0 mi NE 17.3 mph 21.9 mph N/A   Clear
6:53 PM 41.0 °F 34.7 °F 37.9 °F 89% 30.15 in 7.0 mi ENE 10.4 mph - N/A   Clear
7:53 PM 39.0 °F 30.6 °F 37.0 °F 93% 30.17 in 5.0 mi ENE 15.0 mph - N/A   Clear
8:53 PM 37.9 °F 30.0 °F 37.0 °F 97% 30.17 in 5.0 mi ENE 12.7 mph - N/A   Clear
9:53 PM 37.9 °F 30.9 °F 37.0 °F 97% 30.16 in 5.0 mi ENE 10.4 mph - N/A   Clear
10:53 PM 37.9 °F 30.9 °F 37.0 °F 97% 30.17 in 5.0 mi ENE 10.4 mph - N/A   Clear
11:03 PM 37.9 °F 30.9 °F 36.0 °F 93% 30.17 in 5.0 mi ENE 10.4 mph - N/A   Scattered Clouds
11:17 PM 37.9 °F 29.2 °F 37.0 °F 97% 30.16 in 5.0 mi ENE 15.0 mph - N/A   Mostly Cloudy
11:53 PM 37.9 °F 28.9 °F 37.0 °F 97% 30.17 in 5.0 mi ENE 16.1 mph - N/A   Overcast